www.pogodaiklimat.ru

Погода и климат >> Архив погоды >> Кувейт >> Эль-Джахра


ПОГОДА в Эль-Джахра

  • Прогноз погоды в Эль-Джахра
  • Монитор погоды в Эль-Джахра

АРХИВ ПОГОДЫ в Эль-Джахра

Время (UTC), дата Ветер
(напр.,м/с)
 
Видим.   Явления Облачность Т
(С)
Тd
(С)
f
(%)
Тe
(С)
Тes
(С)
Комфортность P
(гПа)
Po
(гПа)
Тmin
(С)
Tmax
(С)
R
(мм)
R24
(мм)
S
(см)
18 15.03 Ю 1-1
{7}
н/о н/о +18.2 +6.5 46 +20 +20 1016.9 1010.4
21 15.03 Ю 2-4
{4}
н/о н/о +16.4 +5.5 48 +17 +17 1017.2 1010.6 +13.4 +25.9
00 16.03 ЮВ 1-2
{4}
н/о н/о +13.9 +5.7 58 +15 +15 1016.3 1009.7
03 16.03 ЮЗ 2-3
{3}
н/о н/о +13.3 +5.2 58 +13 +13 1017.2 1010.5
06 16.03 ЮВ 1-1
{3}
н/о н/о +20.9 +3.7 32 +23 +23 комфорт 1017.5 1011.0
18 16.03 В 2-3
{8}
н/о н/о +18.2 +13.0 72 +19 +19 1010.5 1004.0
21 16.03 В 2-3
{5}
н/о н/о +18.3 +15.7 85 +19 +19 1008.7 1002.2 +13.0 +26.5
00 17.03 ЮВ 2-4
{5}
н/о н/о +18.1 +16.7 92 +19 +19 1006.0 999.5
03 17.03 З 3-5
{5}
н/о н/о +18.0 +16.6 92 +18 +18 1007.4 1000.9
06 17.03 З 7-12
{13}
н/о н/о +20.4 +1.6 29 +20 +20 1010.7 1004.2
09 17.03 З 8-15
{17}
н/о н/о +22.9 -0.5 21 +22 +22 комфорт 1011.7 1005.3
12 17.03 З 8-13
{17}
н/о н/о +24.0 -1.3 19 +23 +23 комфорт 1011.0 1004.6
15 17.03 З 6-11
{15}
н/о н/о +21.7 -1.8 21 +21 +21 комфорт 1012.6 1006.2
18 17.03 ЮЗ 2-2
{15}
н/о н/о +18.2 +2.0 34 +19 +19 1015.1 1008.6
21 17.03 З 3-4
{5}
н/о н/о +16.4 +3.0 41 +16 +16 1015.5 1008.9 +16.3 +24.4
00 18.03 З 3-5
{6}
н/о н/о +14.8 +2.9 45 +14 +14 1015.2 1008.6
03 18.03 З 3-5
{7}
н/о н/о +14.1 +2.6 46 +13 +13 1016.6 1010.0
06 18.03 З 5-8
{10}
н/о н/о +19.1 +1.5 31 +19 +19 1019.0 1012.5
09 18.03 З 4-10
{11}
н/о н/о +23.8 -1.8 18 +22 +22 комфорт 1019.0 1012.6
12 18.03 СЗ 4-9
{11}
н/о н/о +24.0 -3.4 16 +22 +22 комфорт 1018.1 1011.7
15 18.03 СЗ 2-5
{10}
н/о н/о +21.7 -2.3 20 +21 +21 комфорт 1018.9 1012.4
18 18.03 СЗ 2-4
{10}
н/о н/о +18.3 -9.5 14 +19 +19 1020.3 1013.7
21 18.03 З 2-3
{3}
н/о н/о +15.0 -7.1 21 +15 +15 1020.6 1014.0 +14.0 +24.5
00 19.03 З 2-2
{3}
н/о н/о +12.2 -4.5 31 +12 +12 1019.7 1013.0
03 19.03 З 2-2
{3}
н/о н/о +10.6 -3.3 38 +10 +10 1020.2 1013.5
06 19.03 СЗ 2-4
{5}
н/о н/о +19.5 -3.8 20 +20 +20 1021.0 1014.5
09 19.03 СЗ 3-6
{7}
н/о н/о +23.5 -5.3 14 +22 +22 комфорт 1019.5 1013.1
12 19.03 СЗ 3-8
{10}
н/о н/о +25.5 -2.8 15 +23 +23 комфорт 1017.3 1010.9
15 19.03 С 4-7
{9}
н/о н/о +22.9 -3.2 17 +21 +21 комфорт 1017.1 1010.7
18 19.03 С 2-2
{9}
н/о н/о +19.7 -1.3 24 +20 +20 1018.4 1011.9
21 19.03 СВ 2-2
{4}
н/о н/о +16.8 -0.2 31 +17 +17 1017.3 1010.7 +10.6 +26.0
00 20.03 ЮЗ 1-2
{4}
н/о н/о +13.3 +0.8 42 +14 +14 1016.2 1009.6
03 20.03 ЮЗ 1-2
{3}
н/о н/о +13.2 +2.0 47 +14 +14 1017.0 1010.3
06 20.03 Ю 1-1
{4}
н/о н/о +21.1 +1.7 28 +21 +21 комфорт 1017.4 1010.9
09 20.03 СВ 3-6
{6}
н/о н/о +24.8 +1.0 21 +24 +24 комфорт 1015.3 1008.9
12 20.03 СВ 4-6
{7}
н/о н/о +26.1 -1.5 16 +24 +24 комфорт 1013.7 1007.4
15 20.03 ЮВ 3-4
{6}
н/о н/о +23.0 -1.2 20 +22 +22 комфорт 1014.4 1008.0
18 20.03 ЮВ 2-3
{6}
н/о н/о +19.7 -0.7 25 +21 +21 комфорт 1015.5 1009.0
21 20.03 ЮЗ 1-2
{2}
н/о н/о +17.3 +0.4 32 +18 +18 1014.9 1008.4 +12.4 +27.0
00 21.03 С 1-2
{2}
н/о н/о +15.6 +1.3 38 +16 +16 1014.2 1007.6
03 21.03 СЗ 1-2
{1}
н/о н/о +16.0 +1.6 38 +17 +17 1015.6 1009.0
06 21.03 СВ 4-5
{5}
н/о н/о +21.2 +5.7 36 +22 +22 комфорт 1016.5 1010.0
09 21.03 СВ 5-8
{8}
н/о н/о +25.8 +3.6 24 +25 +25 комфорт 1015.7 1009.3
12 21.03 В 4-6
{8}
н/о н/о +27.1 +1.3 19 +25 +25 комфорт 1013.7 1007.4
15 21.03 В 2-4
{7}
н/о н/о +23.6 +0.3 21 +22 +22 комфорт 1014.3 1007.9
18 21.03 ЮЗ 1-1
{7}
н/о н/о +20.7 +1.8 29 +22 +22 комфорт 1015.5 1009.0
21 21.03 СЗ 1-2
{2}
н/о н/о +18.2 +3.1 37 +19 +19 1015.4 1008.9 +14.9 +27.3
00 22.03 С 2-3
{3}
н/о н/о +17.7 +4.0 40 +18 +18 1014.9 1008.4
03 22.03 С 2-3
{3}
н/о н/о +17.0 +5.4 46 +18 +18 1016.1 1009.5
06 22.03 СВ 3-5
{5}
н/о н/о +21.9 +5.2 34 +22 +22 комфорт 1017.4 1010.9
09 22.03 СВ 4-6
{7}
н/о н/о +26.9 +3.3 22 +26 +26 жарко 1016.1 1009.8
12 22.03 В 4-7
{7}
н/о н/о +28.5 +1.2 17 +26 +26 жарко 1013.8 1007.5
15 22.03 ЮВ 3-4
{7}
н/о н/о +24.4 +1.8 23 +23 +23 комфорт 1013.8 1007.4

 

Местоположение метеостанции Эль-Джахра (Кувейт): широта 29.32 долгота 47.67 высота над уровнем моря 55 м.

В архиве по умолчанию представлена погода в Эль-Джахра за последнюю неделю. Архивные данные за месяц целиком и за предыдущие месяцы, начиная с января 2011 года, Вы можете получить, выбрав интересующий диапазон дат из раскрывающегося списка и нажав кнопку "Ввод!".


*Определитесь, кто Вы:
робот инопланетянин человек

Внимание! Время в таблицах - всемирное. Для получения местного времени необходимо прибавить поправку, которая равна 3 ч.

Смотрите также архив погоды в соседних городах и на ближайших метеорологических станциях:

Погода в Сулайбии (Кувейт) (7 км)
Погода на Экспериментальной ферме (Кувейт) (26 км)
Погода в Минагише (Кувейт) (31 км)
Погода в Эль-Кувейте (Кувейт) (31 км)
Погода на Метеостанции Jal Aliyah (Кувейт) (33 км)
Погода в Кувейт Сити (Кувейт) (37 км)
Погода в Аль-Шуаиба (Кувейт) (42 км)
Погода на Метеостанции Sabriyah (Кувейт) (51 км)
Погода Остров Файлака (Кувейт) (61 км)
Погода на Метеостанции Mintribah (Кувейт) (63 км)

Пояснения к столбцам:

Ветер - указаны скорость ветра в м/с - средняя за 10 мин, порывы в срок и между сроками (в фигурных скобках) и направление, откуда дует ветер: С - северный, СВ - северо-восточный, В - восточный, ЮВ - юго-восточный, Ю - южный, ЮЗ - юго-западный, З - западный, СЗ - северо-западный.
Видимость - горизонтальная дальность видимости в метрах или километрах. При видимости от 1 до 10 км при отсутствии осадков обычно наблюдается дымка, при ухудшении видимости до 1 км и менее - туман. В сухую погоду видимость может ухудшаться дымом, пылью или мглою.
Явления - указаны атмосферные явления, наблюдавшиеся в срок или в последний час перед сроком; фигурными скобками обозначены явления, наблюдавшиеся между сроками (за 1-3 часа до срока); квадратными скобками обозначены град или гололедные отложения с указанием их диаметра в мм.
Облачность - указаны через наклонную черту общая и нижняя облачность в баллах и высота нижней границы облаков в метрах; квадратными скобками обозначены формы облаков: Ci - перистые, Cs - перисто-слоистые, Cc - перисто-кучевые, Ac - высококучевые, As - высокослоистые, Sc - слоисто-кучевые, Ns - слоисто-дождевые, Cu - кучевые, Cb - кучево-дождевые. Подробнее классификацию облаков см. в Атласе облаков (PDF).
T - Температура воздуха - температура, измеренная на высоте 2 м над землей.
Td - Температура точки росы - температура, при понижении до которой содержащийся в воздухе водяной пар достигнет насыщения.
f - Относительная влажность воздуха - влажноcть воздуха, измеренная на высоте 2 м над землей.
Te - Эффективная температура - температура, которую ощущает одетый по сезону человек в тени. Характеристика душности погоды. При расчете учитывается влияние влажности воздуха и скорости ветра на теплоощущения человека.
Tes - Эффективная температура на солнце - температура, которую ощущает человек, с поправкой на солнечный нагрев. Характеристика знойности погоды. Зависит от высоты солнца над горизонтом, облачности и скорости ветра. Ночью, в пасмурную погоду, а также при ветре 12 м/с и более поправка равна нулю.
P - Атмосферное давление - приведенное к уровню моря атмосферное давление.
Po - Атмосферное давление - измеренное на уровне метеостанции атмосферное давление.
Tmin - Минимальная температура - минимум температуры воздуха на высоте 2 м над землей.
Tmax - Максимальная температура - максимум температуры воздуха на высоте 2 м над землей.
R - Количество осадков - Количество выпавших осадков за период времени, мм. При наведении курсора мыши на число - период времени, за который выпало указанное количество осадков.
R24 - Количество осадков - Количество выпавших осадков за 24 часа, мм.
S - Снежный покров - Высота снежного покрова, см. При наведении курсора мыши на число - состояние снежного покрова и степень покрытия местности в баллах.